Lexington Weather

Lexington, Massachusetts, USA

50°F
12/8/2022 1:59pm 
  • Lexington Conditions: Clear
  • Temperature: 49.8°F / 9.9°CColder 0.6°F than last hour.
  • Dew Point: 35.2°FDecreased 1.8°Fsince last hour.
  • Relative Humidity: 57%Decreased 3.0% since last hour.
  • Wind: Wind from NW NW Calm, 10-min avg: 4 mph, gust: 10 mph
  • Barometer: 30.06 in Steady
  • Visibility: 10 miles
  • Rain Today: 0.00 in
  •   

Regional Weather Roundup
for Boston, MA

        
000
ASUS41 KBOX 072010
RWRBOX

REGIONAL WEATHER ROUNDUP
NATIONAL WEATHER SERVICE BOSTON/NORTON MA
300 PM EST WED DEC 07 2022

NOTE:  "FAIR" INDICATES FEW OR NO CLOUDS BELOW 12,000 FEET WITH NO 
SIGNIFICANT WEATHER AND/OR OBSTRUCTIONS TO VISIBILITY.

MAZALL-072100-
EASTERN MASSACHUSETTS
  
CITY           SKY/WX    TMP DP  RH WIND       PRES   REMARKS
BOSTON         LGT RAIN  56  55  97 S10       30.12F FOG              
BEVERLY        CLOUDY    55  54  96 S6        30.11F                  
LAWRENCE       LGT RAIN  58  55  90 VRB6      30.12F                  
BEDFORD        CLOUDY    59  56  89 S6        30.10S                  
NORWOOD        CLOUDY    60  57  89 S7        30.12F                  
MARSHFIELD       N/A     57  55  94 S7G14     30.13F                  
PLYMOUTH       LGT RAIN  58  56  93 S7G17     30.14F                  
TAUNTON          N/A    N/A N/A N/A MISG      30.12F                  
NEW BEDFORD    LGT RAIN  57  57 100 S10       30.13F FOG              
$$

MAZALL-072100-
CAPE COD AND THE ISLANDS
  
CITY           SKY/WX    TMP DP  RH WIND       PRES   REMARKS
FALMOUTH       DRIZZLE   54  54 100 S8        30.16F                  
HYANNIS        RAIN      54  54 100 SE8       30.15F FOG              
CHATHAM        HVY RAIN  55  53  93 SE8       30.18F FOG              
PROVINCETOWN   LGT RAIN  53  53 100 S15       30.16F                  
NANTUCKET      LGT RAIN N/A N/A N/A SE13      30.17F                  
MARTHAS VNYRD  CLOUDY    57  55  93 S13       30.15F                  
$$
 
MAZALL-072100-
CENTRAL AND WESTERN MASSACHUSETTS
  
CITY           SKY/WX    TMP DP  RH WIND       PRES   REMARKS
WORCESTER      HVY RAIN  57  55  93 S7        30.10F VSB 1            
FITCHBURG      CLOUDY    56  53  90 SE6       30.10F FOG              
ORANGE         CLOUDY    56  55  97 S7        30.09F FOG              
SPRINGFIELD    CLOUDY    57  57  99 SW6       30.06F                  
WESTFIELD      CLOUDY    56  56 100 S6        30.08F FOG              
NORTH ADAMS    CLOUDY    59  54  83 N3        30.06F                  
PITTSFIELD     CLOUDY    55  54  96 CALM      30.05F                  
$$
 
RIZALL-072100-
RHODE ISLAND
  
CITY           SKY/WX    TMP DP  RH WIND       PRES   REMARKS
PROVIDENCE     LGT RAIN  56  56 100 S8        30.12F FOG              
NEWPORT        LGT RAIN  55  55 100 S13       30.12F VSB 3/4          
BLOCK ISLAND   LGT RAIN  56  55  97 S20       30.12F FOG              
SMITHFIELD     LGT RAIN  56  56 100 S3        30.12S FOG              
WESTERLY       LGT RAIN  57  56  96 SW9       30.12F FOG              
$$
 
CTZALL-072100-
CONNECTICUT
  
CITY           SKY/WX    TMP DP  RH WIND       PRES   REMARKS
BRADLEY INTL   CLOUDY    58  55  90 S7        30.09F                  
HARTFORD       CLOUDY    58  56  93 S6        30.09F                  
BRIDGEPORT     FOG       56  56 100 CALM      30.09F VSB 1/4          
DANBURY        CLOUDY    59  56  89 SE3       30.09F                  
GROTON         LGT RAIN  58  56  93 SW7       30.11F FOG              
NEW HAVEN      FOG       57  57 100 CALM      30.09F VSB 1/4          
CHESTER        DRIZZLE   57  57 100 SW6       30.11S                  
MERIDEN        FOG       57  54  89 S6        30.09F VSB 1/2          
WILLIMANTIC    CLOUDY    57  57 100 SW3       30.11S FOG              
OXFORD         FOG       56  56 100 S3        30.09F VSB 1/4          
$$

MEZ002-015-021-024-NHZ003-005-008-011-012-014-VTZ005-008-072100-
NORTHERN NEW ENGLAND
  
CITY           SKY/WX    TMP DP  RH WIND       PRES   REMARKS
PORTLAND ME    LGT RAIN  50  50 100 S9        30.13F FOG              
BANGOR ME      LGT RAIN  53  52  96 S10       30.16F FOG              
CONCORD NH     FOG       51  51 100 CALM      30.09F VSB 1/2          
MANCHESTER NH  LGT RAIN  57  55  93 S7        30.08F FOG              
NASHUA NH      LGT RAIN  55  32  41 SE7       30.09F FOG              
PORTSMOUTH NH  LGT RAIN  53  52  98 S5        30.10F FOG              
JAFFREY NH     CLOUDY    56  54  93 S3        30.09F                  
KEENE NH       LGT RAIN  54  54 100 CALM        N/A  VSB 1            
BURLINGTON VT  LGT RAIN  54  53  97 SW3       30.02F                  
MT. WASHINGTON FOG       37  37 100 SW35        N/A  VSB 0   WCI  24  
$$

NYZ052-076-072100-
EASTERN NEW YORK
  
CITY           SKY/WX    TMP DP  RH WIND       PRES   REMARKS
ALBANY         LGT RAIN  57  54  89 S9        30.05F                  
NEW YORK CITY  CLOUDY    59  56  89 SW5       30.09S                  
$$
 
ANZALL-072100-
MARINE OBSERVATIONS
  
STATION/POSITION TIME  TEMP    WIND        PRES    VSBY  WAVE
                       AIR SEA DIR/SP/G                  HT/PER
                 (UTC) (F)     (DEG/KT/KT) (MB)    (MI)  (FT/S)
BOSTON BUOY      1950      50  150/ 16/ 19 1020.8F         5/ 9
BUZZARDS BAY     1900   55     180/ 15/ 16 1021.5F
NANTUCKET SOUND  1950   53     130/ 10/ 12 1021.3F         2/ 3
MASS BAY-STELLWA 1804   52 50  170/ 16/ 19 1020.6F  1 7/8  7/11
ISLE OF SHOALS   1900   51     170/ 21/ 22 1019.7F
S OF BLOCK IS    1956      55                N/A           6/11
$$

......................KEY.........................
  SKY/WX - SKY CONDITION/PRESENT WEATHER
  TMP    - TEMPERATURE IN FAHRENHEIT
  DWPT   - DEWPOINT IN FAHRENHEIT
  RH     - RELATIVE HUMIDITY IN PERCENT
  WIND   - DIRECTION AND SPEED IN MPH
  PRES   - MEAN SEA LEVEL PRESSURE IN INCHES OF HG
  WCI    - WIND CHILL INDEX
  VSB    - VISIBILITY IN MILES
  HX     - HEAT INDEX
  TC     - TEMPERATURE IN CELSIUS
  VRB    - VARIABLE WIND DIRECTION
  N/A    - NOT AVAILABLE
  
      

Other recent Regional Weather Roundups

Thu Dec 8, 1:10pm

Thu Dec 8, 12:10pm

Thu Dec 8, 11:10am

Thu Dec 8, 10:10am

Thu Dec 8, 9:10am

Thu Dec 8, 8:10am

Thu Dec 8, 7:10am

Thu Dec 8, 6:10am

Thu Dec 8, 5:10am

Thu Dec 8, 4:10am

Thu Dec 8, 3:10am

Thu Dec 8, 2:10am

Thu Dec 8, 1:10am

Thu Dec 8, 12:10am

Wed Dec 7, 11:10pm

Wed Dec 7, 10:10pm

Wed Dec 7, 9:10pm

Wed Dec 7, 8:10pm

Wed Dec 7, 7:10pm

Wed Dec 7, 6:10pm

Wed Dec 7, 5:10pm

Wed Dec 7, 4:10pm

Wed Dec 7, 2:10pm

Wed Dec 7, 1:10pm

Wed Dec 7, 12:10pm

Wed Dec 7, 11:10am

Wed Dec 7, 10:10am

Wed Dec 7, 9:10am

Wed Dec 7, 8:10am

Wed Dec 7, 7:10am

Wed Dec 7, 6:10am

Wed Dec 7, 5:10am

Wed Dec 7, 4:10am

Wed Dec 7, 3:10am

Wed Dec 7, 2:10am

Wed Dec 7, 1:10am

Wed Dec 7, 12:10am

Tue Dec 6, 11:10pm

Tue Dec 6, 10:10pm

Tue Dec 6, 9:10pm

Tue Dec 6, 8:10pm

Tue Dec 6, 7:10pm

Tue Dec 6, 6:10pm

Tue Dec 6, 5:10pm

Tue Dec 6, 4:10pm

Tue Dec 6, 3:10pm

Tue Dec 6, 2:10pm

Tue Dec 6, 1:10pm

Tue Dec 6, 12:10pm

Tue Dec 6, 11:10am

Tue Dec 6, 10:10am

Tue Dec 6, 9:10am

Tue Dec 6, 8:10am

Tue Dec 6, 7:10am

Tue Dec 6, 6:10am

Tue Dec 6, 5:10am

Tue Dec 6, 4:10am

Tue Dec 6, 3:10am

Tue Dec 6, 2:10am

Tue Dec 6, 1:10am

Tue Dec 6, 12:10am

Mon Dec 5, 11:10pm

Mon Dec 5, 10:10pm

Mon Dec 5, 9:10pm

Mon Dec 5, 8:10pm

Mon Dec 5, 7:10pm

Mon Dec 5, 6:10pm

Mon Dec 5, 5:10pm

Mon Dec 5, 4:10pm

Mon Dec 5, 3:10pm

Mon Dec 5, 2:10pm

Mon Dec 5, 1:10pm

Mon Dec 5, 12:10pm

Mon Dec 5, 11:10am

Mon Dec 5, 10:10am

Mon Dec 5, 9:10am

Mon Dec 5, 8:10am

Mon Dec 5, 7:10am

Mon Dec 5, 6:10am

Mon Dec 5, 5:10am

Mon Dec 5, 4:10am

Mon Dec 5, 3:10am

Mon Dec 5, 2:10am

Mon Dec 5, 1:10am

Mon Dec 5, 12:10am

Sun Dec 4, 11:10pm

Sun Dec 4, 10:10pm

Sun Dec 4, 9:10pm

Sun Dec 4, 8:10pm

Sun Dec 4, 7:10pm

Sun Dec 4, 6:10pm

Sun Dec 4, 5:10pm

Sun Dec 4, 4:10pm

Sun Dec 4, 3:10pm

Sun Dec 4, 2:10pm

Sun Dec 4, 1:10pm

Sun Dec 4, 12:10pm

Sun Dec 4, 11:10am

Sun Dec 4, 10:10am

Sun Dec 4, 9:10am

Sun Dec 4, 8:10am

Sun Dec 4, 7:10am

Sun Dec 4, 6:10am

Sun Dec 4, 5:10am

Sun Dec 4, 4:10am

Sun Dec 4, 3:10am

Sun Dec 4, 2:10am

Sun Dec 4, 1:10am

Sun Dec 4, 12:10am

Sat Dec 3, 11:10pm

Sat Dec 3, 10:10pm

Sat Dec 3, 9:10pm

Sat Dec 3, 8:10pm

Sat Dec 3, 7:10pm

Sat Dec 3, 6:10pm

Sat Dec 3, 5:10pm

Sat Dec 3, 4:10pm

Sat Dec 3, 3:10pm

Sat Dec 3, 2:10pm

Sat Dec 3, 1:10pm

Sat Dec 3, 12:10pm

Sat Dec 3, 11:10am

Sat Dec 3, 10:10am

Sat Dec 3, 9:10am

Sat Dec 3, 8:10am

Sat Dec 3, 7:10am

Sat Dec 3, 6:10am

Sat Dec 3, 5:10am

Sat Dec 3, 4:10am

Sat Dec 3, 3:10am

Sat Dec 3, 2:10am

Sat Dec 3, 1:10am

Sat Dec 3, 12:10am

Fri Dec 2, 11:10pm

Fri Dec 2, 10:10pm

Fri Dec 2, 9:10pm

Fri Dec 2, 8:10pm

Fri Dec 2, 7:10pm

Fri Dec 2, 6:10pm

Fri Dec 2, 5:10pm

Fri Dec 2, 4:10pm

Fri Dec 2, 3:10pm

Fri Dec 2, 2:10pm

Fri Dec 2, 1:10pm

Fri Dec 2, 12:10pm

Fri Dec 2, 11:10am

Fri Dec 2, 10:10am

Fri Dec 2, 9:10am

Fri Dec 2, 8:10am

Fri Dec 2, 7:10am

Fri Dec 2, 6:10am

Fri Dec 2, 5:10am

Fri Dec 2, 4:10am

Fri Dec 2, 3:10am

Fri Dec 2, 2:10am

Fri Dec 2, 1:10am

Fri Dec 2, 12:10am

Thu Dec 1, 11:10pm

Thu Dec 1, 10:10pm

Thu Dec 1, 9:10pm

Thu Dec 1, 8:10pm

Thu Dec 1, 7:10pm

Thu Dec 1, 6:10pm

Thu Dec 1, 5:10pm

Thu Dec 1, 4:10pm

Thu Dec 1, 3:10pm

Thu Dec 1, 2:10pm

Meta data:

ID: 643f7151-e09e-4d50-9ee5-87195c61df82
Link: https://api.weather.gov/products/643f7151-e09e-4d50-9ee5-87195c61df82